Buccaneer-MM

operational
NORAD ID: 63245 Int'l Des: 2025-052 Owner: UNSW/DSTO Country: AU
LEOCIRCULARRETROGRADESSO

About Buccaneer-MM

Description loading...

Live Position

Loading 3D Globe...

Upcoming Passes

Altitude History

Altitude vs Time

uPlot chart will show altitude changes over time

Two-Line Element Set

1 63245U 25052AM 25315.28401926 .00005655 00000-0 54998-3 0 9991
2 63245 97.7067 205.6444 0003038 203.5007 156.6075 14.92944381 36064
Epoch: Nov 11, 2025 • Age: 14 hours

Current Status

Altitude 615.0 km
Velocity 7.55 km/s
Sub-Earth Point -76.05°S, 10.4°W
Launch Date Mar 15, 2025
Age 0.6 years
Type other

Technical Details

Classification Payload
Mass 10.00 kg
Dry Mass 10.00 kg
Total Mass 10.00 kg
Length 0.30 m
Diameter 0.10 m
Span 3.50 m
Shape Box+2 ant
Manufacturer UNSW
Bus Type Cubesat 6U
Phase Status In Orbit
Owner/State UNSW/DSTO/AU

Large Constellations

Loading constellations...